Kristianstad, Sweden

10:17 PM CEST on September 23, 2017 (GMT +0200)
Kristianstad

Weather History for ESMK - January, 2014

Change the Weather History Date:

Thursday, January 16, 2014

  Actual Average Record
Temperature  
Mean Temperature 35 °F -  
Max Temperature 37 °F - - ()
Min Temperature 33 °F - - ()
Degree Days  
Heating Degree Days 30    
Moisture  
Dew Point 30 °F    
Average Humidity 79    
Maximum Humidity 81    
Minimum Humidity 75    
Precipitation  
Precipitation 0.00 in - - ()
Sea Level Pressure  
Sea Level Pressure 29.86 in    
Wind  
Wind Speed 15 mph ()    
Max Wind Speed 24 mph    
Max Gust Speed 37 mph    
Visibility 6.2 miles    
Events Snow    
T = Trace of Precipitation, MM = Missing Value Source: Averaged Metar Reports

Daily Weather History Graph

Daily Weather History Graph

Search for Another Location

Airport or City:

Trip Planner

Search our weather history database for the weather conditions in past years. The results will help you decide how hot, cold, wet, or windy it might be!

Date:

Astronomy

Jan. 16, 2014 Rise Set
Actual Time 8:23 AM CET 4:03 PM CET
Civil Twilight 7:39 AM CET 4:48 PM CET
Nautical Twilight 6:52 AM CET 5:35 PM CET
Astronomical Twilight 6:07 AM CET 6:19 PM CET
Moon 4:57 PM CET (1/16) 7:51 AM CET (1/16)
Length of Visible Light 9h 09m
Length of Day
7h 40m
Full, 100% of the Moon is Illuminated
Jan 16
Full
Jan 24
Last Quarter
Jan 30
New
Feb 6
First Quarter
Feb 15
Full

Hourly Weather History & Observations

Time (CET) Temp. Windchill Dew Point Humidity Pressure Visibility Wind Dir Wind Speed Gust Speed Precip Events Conditions
12:20 AM 35.6 °F 27.5 °F 30.2 °F 81% 29.92 in 6.2 mi ESE 11.5 mph - N/A   Overcast
12:50 AM 37.4 °F 28.9 °F 30.2 °F 75% 29.92 in 6.2 mi ESE 13.8 mph - N/A   Overcast
1:20 AM 37.4 °F 29.8 °F 30.2 °F 75% 29.89 in 6.2 mi SE 11.5 mph - N/A   Overcast
1:50 AM 37.4 °F 29.3 °F 30.2 °F 75% 29.89 in 6.2 mi SE 12.7 mph - N/A   Overcast
2:20 AM 35.6 °F 27.1 °F 30.2 °F 81% 29.89 in 6.2 mi ESE 12.7 mph - N/A   Overcast
2:50 AM 35.6 °F 26.6 °F 30.2 °F 81% 29.89 in 6.2 mi ESE 13.8 mph - N/A   Overcast
3:20 AM 35.6 °F 26.2 °F 30.2 °F 81% 29.89 in 6.2 mi ESE 15.0 mph - N/A   Overcast
3:50 AM 35.6 °F 27.1 °F 30.2 °F 81% 29.89 in 6.2 mi ESE 12.7 mph - N/A   Overcast
4:20 AM 35.6 °F 26.6 °F 28.4 °F 75% 29.89 in 6.2 mi ESE 13.8 mph - N/A   Overcast
4:50 AM 35.6 °F 26.2 °F 28.4 °F 75% 29.89 in 6.2 mi SE 15.0 mph - N/A   Overcast
5:20 AM 35.6 °F 26.6 °F 30.2 °F 81% 29.89 in 6.2 mi ESE 13.8 mph - N/A   Overcast
5:50 AM 35.6 °F 27.1 °F 30.2 °F 81% 29.89 in 6.2 mi ESE 12.7 mph - N/A   Mostly Cloudy
6:20 AM 35.6 °F 25.2 °F 30.2 °F 81% 29.86 in 6.2 mi ESE 18.4 mph - N/A   Mostly Cloudy
6:50 AM 35.6 °F 26.2 °F 28.4 °F 75% 29.89 in 6.2 mi ESE 15.0 mph - N/A   Mostly Cloudy
7:20 AM 35.6 °F 26.2 °F 30.2 °F 81% 29.89 in 6.2 mi ESE 15.0 mph - N/A   Mostly Cloudy
7:50 AM 35.6 °F 25.9 °F 30.2 °F 81% 29.89 in 6.2 mi ESE 16.1 mph - N/A   Mostly Cloudy
8:20 AM 35.6 °F 25.2 °F 28.4 °F 75% 29.89 in 6.2 mi ESE 18.4 mph - N/A   Mostly Cloudy
8:50 AM 35.6 °F 24.8 °F 30.2 °F 81% 29.89 in 6.2 mi ESE 19.6 mph - N/A   Mostly Cloudy
9:20 AM 35.6 °F 25.2 °F 30.2 °F 81% 29.89 in 6.2 mi ESE 18.4 mph - N/A   Mostly Cloudy
9:50 AM 35.6 °F 25.5 °F 30.2 °F 81% 29.89 in 6.2 mi ESE 17.3 mph - N/A   Mostly Cloudy
10:20 AM 35.6 °F 24.8 °F 28.4 °F 75% 29.89 in 6.2 mi ESE 19.6 mph - N/A   Mostly Cloudy
10:50 AM 35.6 °F 25.2 °F 28.4 °F 75% 29.89 in 6.2 mi ESE 18.4 mph - N/A   Mostly Cloudy
11:20 AM 35.6 °F 25.2 °F 30.2 °F 81% 29.89 in 6.2 mi ESE 18.4 mph - N/A   Mostly Cloudy
11:50 AM 35.6 °F 25.5 °F 30.2 °F 81% 29.89 in 6.2 mi East 17.3 mph - N/A   Mostly Cloudy
12:20 PM 35.6 °F 25.2 °F 30.2 °F 81% 29.89 in 6.2 mi East 18.4 mph - N/A Snow Light Snow Grains
12:50 PM 35.6 °F 25.9 °F 30.2 °F 81% 29.86 in 6.2 mi ESE 16.1 mph - N/A   Mostly Cloudy
1:20 PM 35.6 °F 25.2 °F 30.2 °F 81% 29.86 in 6.2 mi ESE 18.4 mph - N/A   Mostly Cloudy
1:50 PM 35.6 °F 25.2 °F 28.4 °F 75% 29.86 in 6.2 mi ESE 18.4 mph - N/A   Mostly Cloudy
2:20 PM 35.6 °F 25.2 °F 28.4 °F 75% 29.86 in 6.2 mi ESE 18.4 mph - N/A   Mostly Cloudy
2:50 PM 35.6 °F 24.5 °F 30.2 °F 81% 29.86 in 6.2 mi ESE 20.7 mph - N/A   Mostly Cloudy
3:20 PM 35.6 °F 25.9 °F 30.2 °F 81% 29.86 in 5.6 mi ESE 16.1 mph 27.6 mph N/A Snow Light Snow
3:50 PM 35.6 °F 24.5 °F 30.2 °F 81% 29.83 in 6.2 mi East 20.7 mph 32.2 mph N/A Snow Light Snow
4:20 PM 35.6 °F 24.8 °F 30.2 °F 81% 29.83 in 5.0 mi ESE 19.6 mph 31.1 mph N/A Snow Light Snow
4:50 PM 35.6 °F 23.7 °F 30.2 °F 81% 29.83 in 6.2 mi East 24.2 mph - N/A   Mostly Cloudy
5:20 PM 35.6 °F 24.2 °F 30.2 °F 81% 29.83 in 6.2 mi East 21.9 mph 33.4 mph N/A   Overcast
5:50 PM 35.6 °F 24.5 °F 28.4 °F 75% 29.83 in 6.2 mi East 20.7 mph 32.2 mph N/A   Overcast
6:20 PM 35.6 °F 24.2 °F 30.2 °F 81% 29.83 in 6.2 mi East 21.9 mph 33.4 mph N/A   Overcast
6:50 PM 33.8 °F 22.2 °F 28.4 °F 81% 29.83 in 6.2 mi East 20.7 mph 32.2 mph N/A   Overcast
7:20 PM 33.8 °F 21.9 °F 28.4 °F 81% 29.83 in 6.2 mi East 21.9 mph - N/A   Overcast
7:50 PM 35.6 °F 24.5 °F 30.2 °F 81% 29.83 in 6.2 mi East 20.7 mph - N/A   Overcast
8:20 PM 35.6 °F 24.8 °F 30.2 °F 81% 29.83 in 6.2 mi ESE 19.6 mph - N/A   Overcast
8:50 PM 35.6 °F 24.2 °F 28.4 °F 75% 29.83 in 6.2 mi East 21.9 mph - N/A   Overcast
9:20 PM 35.6 °F 24.5 °F 28.4 °F 75% 29.83 in 6.2 mi ESE 20.7 mph - N/A   Overcast
9:50 PM 35.6 °F 24.0 °F 28.4 °F 75% 29.83 in 6.2 mi ESE 23.0 mph - N/A   Overcast
10:20 PM 35.6 °F 24.8 °F 28.4 °F 75% 29.80 in 6.2 mi ESE 19.6 mph - N/A   Overcast
10:50 PM 35.6 °F 24.0 °F 28.4 °F 75% 29.80 in 6.2 mi East 23.0 mph 35.7 mph N/A   Overcast
11:20 PM 33.8 °F 21.6 °F 28.4 °F 81% 29.80 in 6.2 mi East 23.0 mph - N/A   Overcast
11:50 PM 35.6 °F 23.7 °F 28.4 °F 75% 29.80 in 6.2 mi ESE 24.2 mph 36.8 mph N/A   Overcast